TimeCST,TemperatureF,Dew PointF,Humidity,Sea Level PressureIn,VisibilityMPH,Wind Direction,Wind SpeedMPH,Gust SpeedMPH,PrecipitationIn,Events,Conditions,WindDirDegrees,DateUTC
12:53 AM,28.0,15.1,58,30.22,10.0,NNW,5.8,-,N/A,,Partly Cloudy,340,2013-01-16 06:53:00
2:53 AM,21.9,15.1,75,30.23,10.0,Calm,Calm,-,N/A,,Clear,0,2013-01-16 08:53:00
3:53 AM,19.9,15.1,81,30.24,10.0,Calm,Calm,-,N/A,,Partly Cloudy,0,2013-01-16 09:53:00
4:53 AM,18.0,12.9,81,30.23,10.0,Calm,Calm,-,N/A,,Scattered Clouds,0,2013-01-16 10:53:00
5:53 AM,17.6,12.2,79,30.20,10.0,Calm,Calm,-,N/A,,Clear,0,2013-01-16 11:53:00
6:53 AM,17.1,14.0,88,30.25,10.0,Calm,Calm,-,N/A,,Partly Cloudy,0,2013-01-16 12:53:00
7:53 AM,18.0,12.9,81,30.27,10.0,Calm,Calm,-,N/A,,Clear,0,2013-01-16 13:53:00
8:53 AM,24.1,18.0,77,30.28,10.0,Calm,Calm,-,N/A,,Partly Cloudy,0,2013-01-16 14:53:00
9:53 AM,30.0,19.0,64,30.27,10.0,Calm,Calm,-,N/A,,Clear,0,2013-01-16 15:53:00
10:53 AM,35.1,16.0,46,30.25,-9999.0,Calm,Calm,-,0.09,,Partly Cloudy,0,2013-01-16 16:53:00
11:53 AM,37.9,17.1,43,30.22,10.0,Calm,Calm,-,N/A,,Clear,0,2013-01-16 17:53:00
12:53 PM,42.1,17.1,37,30.18,10.0,Calm,Calm,-,N/A,,Clear,0,2013-01-16 18:53:00
1:53 PM,44.1,17.1,34,30.16,10.0,Calm,Calm,-,N/A,,Clear,0,2013-01-16 19:53:00
2:53 PM,46.0,17.1,31,30.15,10.0,Variable,3.5,-,N/A,,Clear,0,2013-01-16 20:53:00
3:53 PM,46.9,17.1,30,30.16,10.0,WNW,6.9,-,N/A,,Partly Cloudy,290,2013-01-16 21:53:00
4:53 PM,46.0,17.1,31,30.16,10.0,West,6.9,-,N/A,,Partly Cloudy,280,2013-01-16 22:53:00
5:53 PM,39.0,17.1,41,30.17,10.0,Calm,Calm,-,N/A,,Scattered Clouds,0,2013-01-16 23:53:00
6:53 PM,28.9,17.1,61,30.19,10.0,Calm,Calm,-,N/A,,Partly Cloudy,0,2013-01-17 00:53:00
7:53 PM,30.0,26.1,85,30.21,10.0,Calm,Calm,-,N/A,,Mostly Cloudy,0,2013-01-17 01:53:00
8:53 PM,34.0,30.0,85,30.21,10.0,Calm,Calm,-,N/A,,Overcast,0,2013-01-17 02:53:00
9:53 PM,36.0,25.0,64,30.21,10.0,Calm,Calm,-,N/A,,Overcast,0,2013-01-17 03:53:00
10:53 PM,33.1,28.9,85,30.22,10.0,Calm,Calm,-,N/A,,Clear,0,2013-01-17 04:53:00
11:53 PM,28.9,-9999,N/A,30.24,10.0,Calm,Calm,-,N/A,,Partly Cloudy,0,2013-01-17 05:53:00